When you browse on this site, cookies collect data to enhance your experience and personalize the content and advertising you see.
Visit our Privacy Policy to learn more. By continuing to use the site, you agree to this use of cookies and data.
  • In Romania
  • List of Countries
  • For 7 days
  • Water Temperature
  • Weather Map
  • Weather Widgets
  • user-avatar
    Login

    Hourly Weather Pontypridd

    Today, 17 February, Monday

    Time Temperature Precipitation Wind Pressure Humidity
    00:00 +2°C° 0 mm 10 mps 741 mmHg 81%
    01:00 +2°C° 0.4 mm 11 mps 742 mmHg 80%
    02:00 +3°C° 0.4 mm 12 mps 742 mmHg 78%
    03:00 +3°C° 0.4 mm 13 mps 742 mmHg 77%
    04:00 +3°C° 0.2 mm 12 mps 742 mmHg 77%
    05:00 +2°C° 0.2 mm 11 mps 742 mmHg 76%
    06:00 +2°C° 0 mm 10 mps 742 mmHg 81%
    07:00 +2°C° 0.3 mm 10 mps 742 mmHg 84%
    08:00 +3°C° 0.3 mm 10 mps 743 mmHg 86%
    09:00 +3°C° 0.3 mm 10 mps 743 mmHg 88%
    10:00 +4°C° 0.2 mm 11 mps 744 mmHg 85%
    11:00 +6°C° 0.2 mm 11 mps 744 mmHg 81%
    12:00 +6°C° 0 mm 10 mps 745 mmHg 78%
    13:00 +6°C° 0.2 mm 10 mps 746 mmHg 77%
    14:00 +6°C° 0.2 mm 10 mps 746 mmHg 77%
    15:00 +4°C° 0.2 mm 11 mps 747 mmHg 76%
    16:00 +5°C° 0 mm 10 mps 748 mmHg 77%
    17:00 +3°C° 0 mm 10 mps 748 mmHg 78%
    18:00 +2°C° 0 mm 9 mps 749 mmHg 79%
    19:00 +2°C° 0 mm 9 mps 750 mmHg 78%
    20:00 +1°C° 0 mm 9 mps 751 mmHg 78%
    21:00 +1°C° 0 mm 9 mps 752 mmHg 77%
    22:00 +1°C° 0 mm 8 mps 752 mmHg 78%
    23:00 +1°C° 0 mm 8 mps 753 mmHg 78%

    Tomorrow, 18 February, Tuesday

    Time Temperature Precipitation Wind Pressure Humidity
    00:00 0°C° 0 mm 8 mps 753 mmHg 79%
    01:00 +1°C° 0.1 mm 8 mps 753 mmHg 80%
    02:00 +2°C° 0.1 mm 7 mps 753 mmHg 81%
    03:00 +2°C° 0.1 mm 7 mps 754 mmHg 82%
    04:00 +2°C° 0 mm 7 mps 754 mmHg 83%
    05:00 +2°C° 0 mm 7 mps 754 mmHg 83%
    06:00 +2°C° 0 mm 7 mps 754 mmHg 83%
    07:00 +2°C° 0.1 mm 8 mps 754 mmHg 83%
    08:00 +2°C° 0.1 mm 9 mps 754 mmHg 84%
    09:00 +3°C° 0.1 mm 9 mps 754 mmHg 84%
    10:00 +3°C° 0.2 mm 10 mps 753 mmHg 85%
    11:00 +3°C° 0.2 mm 10 mps 753 mmHg 87%
    12:00 +3°C° 0.2 mm 10 mps 753 mmHg 88%
    13:00 +5°C° 0.1 mm 10 mps 752 mmHg 85%
    14:00 +5°C° 0.1 mm 10 mps 752 mmHg 82%
    15:00 +4°C° 0.1 mm 11 mps 752 mmHg 80%
    16:00 +5°C° 0.7 mm 10 mps 751 mmHg 81%
    17:00 +3°C° 0.7 mm 10 mps 751 mmHg 83%
    18:00 +3°C° 0.7 mm 10 mps 751 mmHg 85%
    19:00 +2°C° 0.1 mm 9 mps 751 mmHg 84%
    20:00 +1°C° 0.1 mm 9 mps 752 mmHg 84%
    21:00 0°C° 0.1 mm 8 mps 752 mmHg 83%
    22:00 0°C° 0 mm 8 mps 753 mmHg 83%
    23:00 0°C° 0 mm 8 mps 753 mmHg 82%

    Day after tomorrow, 19 February, Wednesday

    Time Temperature Precipitation Wind Pressure Humidity
    00:00 -1°C° 0 mm 8 mps 754 mmHg 82%
    01:00 -1°C° 0 mm 7 mps 754 mmHg 82%
    02:00 -1°C° 0 mm 7 mps 754 mmHg 83%
    03:00 -1°C° 0 mm 6 mps 754 mmHg 83%
    04:00 -1°C° 0 mm 6 mps 754 mmHg 83%
    05:00 0°C° 0 mm 5 mps 754 mmHg 83%
    06:00 0°C° 0 mm 5 mps 754 mmHg 83%
    07:00 +1°C° 0 mm 5 mps 754 mmHg 85%
    08:00 +2°C° 0 mm 5 mps 754 mmHg 86%
    09:00 +2°C° 0 mm 5 mps 754 mmHg 87%
    10:00 +3°C° 0.2 mm 6 mps 754 mmHg 90%
    11:00 +4°C° 0.2 mm 6 mps 753 mmHg 92%
    12:00 +4°C° 0.2 mm 6 mps 753 mmHg 94%
    13:00 +4°C° 0.6 mm 7 mps 752 mmHg 94%
    14:00 +5°C° 0.6 mm 8 mps 751 mmHg 94%
    15:00 +5°C° 0.6 mm 9 mps 750 mmHg 94%
    16:00 +5°C° 0.3 mm 9 mps 750 mmHg 93%
    17:00 +5°C° 0.3 mm 9 mps 749 mmHg 92%
    18:00 +5°C° 0.3 mm 9 mps 748 mmHg 91%
    19:00 +5°C° 0.1 mm 9 mps 748 mmHg 90%
    20:00 +6°C° 0.1 mm 9 mps 748 mmHg 90%
    21:00 +6°C° 0.1 mm 9 mps 747 mmHg 89%
    22:00 +6°C° 0 mm 9 mps 747 mmHg 89%
    23:00 +6°C° 0 mm 8 mps 747 mmHg 89%

    20 February, Thursday

    Time Temperature Precipitation Wind Pressure Humidity
    00:00 +6°C° 0 mm 8 mps 746 mmHg 88%
    01:00 +6°C° 0.1 mm 9 mps 745 mmHg 88%
    02:00 +6°C° 0.1 mm 9 mps 745 mmHg 88%
    03:00 +6°C° 0.1 mm 9 mps 744 mmHg 88%
    04:00 +6°C° 0.1 mm 9 mps 743 mmHg 88%
    05:00 +6°C° 0.1 mm 10 mps 743 mmHg 88%
    06:00 +6°C° 0.1 mm 10 mps 742 mmHg 88%
    07:00 +6°C° 0.7 mm 10 mps 741 mmHg 89%
    08:00 +6°C° 0.7 mm 11 mps 741 mmHg 91%
    09:00 +7°C° 0.7 mm 11 mps 740 mmHg 93%
    10:00 +5°C° 0.2 mm 12 mps 741 mmHg 88%
    11:00 +5°C° 0.2 mm 12 mps 742 mmHg 84%
    12:00 +5°C° 0.2 mm 13 mps 742 mmHg 80%
    13:00 +4°C° 0.1 mm 12 mps 744 mmHg 78%
    14:00 +3°C° 0.1 mm 11 mps 745 mmHg 75%
    15:00 +3°C° 0.1 mm 10 mps 747 mmHg 73%
    16:00 +2°C° 0.1 mm 10 mps 748 mmHg 74%
    17:00 +1°C° 0.1 mm 9 mps 749 mmHg 75%
    18:00 0°C° 0.1 mm 8 mps 751 mmHg 76%
    19:00 0°C° 0 mm 8 mps 752 mmHg 75%
    20:00 -1°C° 0 mm 8 mps 753 mmHg 75%
    21:00 -1°C° 0 mm 8 mps 754 mmHg 74%
    22:00 -1°C° 0 mm 7 mps 755 mmHg 76%
    23:00 -1°C° 0 mm 7 mps 755 mmHg 77%

    21 February, Friday

    Time Temperature Precipitation Wind Pressure Humidity
    00:00 -1°C° 0 mm 7 mps 756 mmHg 79%
    01:00 -1°C° 0 mm 7 mps 757 mmHg 79%
    02:00 -1°C° 0 mm 6 mps 757 mmHg 80%
    03:00 -1°C° 0 mm 6 mps 757 mmHg 80%
    04:00 +1°C° 0 mm 6 mps 758 mmHg 81%
    05:00 +1°C° 0 mm 6 mps 758 mmHg 82%
    06:00 +2°C° 0 mm 6 mps 758 mmHg 82%
    13:00 +5°C° 0 mm 10 mps 758 mmHg 78%
    14:00 +4°C° 0 mm 11 mps 758 mmHg 80%
    15:00 +4°C° 0 mm 11 mps 757 mmHg 81%
    16:00 +4°C° 0 mm 11 mps 757 mmHg 82%
    17:00 +4°C° 0 mm 11 mps 756 mmHg 83%
    18:00 +4°C° 0 mm 11 mps 756 mmHg 84%
    19:00 +4°C° 0.1 mm 11 mps 756 mmHg 86%
    20:00 +4°C° 0.1 mm 11 mps 756 mmHg 87%
    21:00 +5°C° 0.1 mm 12 mps 756 mmHg 89%
    22:00 +5°C° 0.3 mm 12 mps 756 mmHg 90%
    23:00 +5°C° 0.3 mm 12 mps 756 mmHg 91%

    22 February, Saturday

    Time Temperature Precipitation Wind Pressure Humidity
    00:00 +5°C° 0.3 mm 12 mps 755 mmHg 92%
    01:00 +7°C° 0.5 mm 12 mps 755 mmHg 93%
    02:00 +7°C° 0.5 mm 12 mps 755 mmHg 94%
    03:00 +7°C° 0.5 mm 12 mps 754 mmHg 94%
    04:00 +7°C° 0.1 mm 12 mps 754 mmHg 95%
    05:00 +7°C° 0.1 mm 12 mps 754 mmHg 95%
    06:00 +8°C° 0.1 mm 12 mps 754 mmHg 95%
    07:00 +8°C° 0.1 mm 12 mps 755 mmHg 95%
    08:00 +8°C° 0.1 mm 12 mps 755 mmHg 94%
    09:00 +8°C° 0.1 mm 12 mps 755 mmHg 93%
    10:00 +8°C° 0.1 mm 12 mps 756 mmHg 93%
    11:00 +8°C° 0.1 mm 11 mps 756 mmHg 93%
    12:00 +8°C° 0.1 mm 11 mps 756 mmHg 92%
    13:00 +8°C° 0 mm 11 mps 756 mmHg 92%
    14:00 +8°C° 0 mm 10 mps 756 mmHg 92%
    15:00 +8°C° 0 mm 10 mps 756 mmHg 91%
    16:00 +8°C° 0.1 mm 9 mps 756 mmHg 92%
    17:00 +8°C° 0.1 mm 9 mps 756 mmHg 93%
    18:00 +7°C° 0.1 mm 8 mps 757 mmHg 94%
    19:00 +7°C° 0.2 mm 8 mps 757 mmHg 94%
    20:00 +9°C° 0.2 mm 8 mps 757 mmHg 95%
    21:00 +9°C° 0.2 mm 8 mps 757 mmHg 95%
    22:00 +9°C° 0.1 mm 8 mps 757 mmHg 95%
    23:00 +9°C° 0.1 mm 8 mps 757 mmHg 95%
    Show more